Weather History for KPYX - December, 2013

Change the Weather History Date:

Wednesday, December 11, 2013

  Actual Average Record
Temperature  
Mean Temperature 26 °F -  
Max Temperature 35 °F 48 °F 71 °F (1979)
Min Temperature 17 °F 21 °F -1 °F (1972)
Degree Days  
Heating Degree Days 39    
Moisture  
Dew Point 14 °F    
Average Humidity 62    
Maximum Humidity 87    
Minimum Humidity 36    
Precipitation  
Precipitation 0.00 in - - ()
Sea Level Pressure  
Sea Level Pressure 30.43 in    
Wind  
Wind Speed 11 mph (NNE)    
Max Wind Speed 16 mph    
Max Gust Speed 20 mph    
Visibility 10 miles    
Events      
Averages and records for this station are not official NWS values.
T = Trace of Precipitation, MM = Missing Value Source: NWS Daily Summary

Daily Weather History Graph

Daily Weather History Graph

Search for Another Location

Airport or City:

Trip Planner

Search our weather history database for the weather conditions in past years. The results will help you decide how hot, cold, wet, or windy it might be!

Date:

Astronomy

Dec. 11, 2013 Rise Set
Actual Time 7:44 AM CST 5:28 PM CST
Civil Twilight 7:16 AM CST 5:56 PM CST
Nautical Twilight 6:43 AM CST 6:28 PM CST
Astronomical Twilight 6:12 AM CST 7:00 PM CST
Moon 1:55 PM CST (12/11) 2:15 AM CST (12/11)
Length of Visible Light 10h 40m
Length of Day
9h 43m
Waxing Gibbous, 72% of the Moon is Illuminated
Dec 11
Waxing Gibbous
Dec 17
Full
Dec 25
Last Quarter
Jan 1
New
Jan 7
First Quarter

Hourly Weather History & Observations

Time (CST) Temp. Windchill Dew Point Humidity Pressure Visibility Wind Dir Wind Speed Gust Speed Precip Events Conditions
12:15 AM 28.8 °F 17.5 °F 4.8 °F 36% 30.14 in 10.0 mi North 15.0 mph - N/A   Clear
12:35 AM 29.3 °F 18.6 °F 6.4 °F 38% 30.15 in 10.0 mi North 13.8 mph - N/A   Clear
12:55 AM 28.2 °F 17.2 °F 7.3 °F 41% 30.17 in 10.0 mi North 13.8 mph - N/A   Clear
1:15 AM 27.0 °F 15.2 °F 8.1 °F 45% 30.18 in 10.0 mi North 15.0 mph - N/A   Clear
1:35 AM 26.6 °F 15.2 °F 8.8 °F 47% 30.19 in 10.0 mi North 13.8 mph - N/A   Clear
1:55 AM 26.6 °F 16.2 °F 9.5 °F 49% 30.21 in 10.0 mi North 11.5 mph - N/A   Clear
2:15 AM 26.6 °F 16.2 °F 10.6 °F 51% 30.22 in 10.0 mi North 11.5 mph - N/A   Clear
2:35 AM 24.8 °F 14.0 °F 10.4 °F 54% 30.24 in 10.0 mi North 11.5 mph - N/A   Clear
2:55 AM 23.9 °F 12.9 °F 10.4 °F 56% 30.25 in 10.0 mi North 11.5 mph - N/A   Clear
3:15 AM 23.7 °F 12.6 °F 11.3 °F 59% 30.26 in 10.0 mi North 11.5 mph - N/A   Clear
3:35 AM 23.9 °F 14.2 °F 12.7 °F 62% 30.28 in 10.0 mi North 9.2 mph - N/A   Clear
3:55 AM 25.3 °F 13.6 °F 14.5 °F 64% 30.28 in 10.0 mi North 13.8 mph - N/A   Clear
4:15 AM 24.8 °F 12.9 °F 14.9 °F 66% 30.29 in 10.0 mi North 13.8 mph - N/A   Clear
4:35 AM 25.0 °F 12.2 °F 15.4 °F 67% 30.30 in 10.0 mi North 16.1 mph - N/A   Clear
4:55 AM 25.2 °F 13.3 °F 16.0 °F 68% 30.31 in 10.0 mi North 13.8 mph - N/A   Clear
5:15 AM 25.2 °F 13.9 °F 16.3 °F 69% 30.33 in 10.0 mi North 12.7 mph - N/A   Clear
5:35 AM 24.4 °F 13.0 °F 16.5 °F 72% 30.34 in 10.0 mi North 12.7 mph - N/A   Clear
5:55 AM 23.7 °F 12.1 °F 16.7 °F 75% 30.35 in 10.0 mi North 12.7 mph - N/A   Clear
6:15 AM 23.0 °F 11.7 °F 16.9 °F 77% 30.36 in 10.0 mi North 11.5 mph - N/A   Clear
6:35 AM 22.8 °F 12.2 °F 17.2 °F 79% 30.39 in 10.0 mi North 10.4 mph - N/A   Clear
6:55 AM 22.1 °F 11.3 °F 17.1 °F 81% 30.40 in 10.0 mi North 10.4 mph - N/A   Clear
7:15 AM 21.7 °F 9.6 °F 17.1 °F 82% 30.41 in 10.0 mi North 12.7 mph - N/A   Clear
7:35 AM 21.2 °F 9.5 °F 17.2 °F 85% 30.43 in 10.0 mi North 11.5 mph - N/A   Clear
7:55 AM 20.8 °F 11.2 °F 17.1 °F 85% 30.45 in 10.0 mi North 8.1 mph - N/A   Clear
8:15 AM 20.3 °F 9.8 °F 17.1 °F 87% 30.46 in 10.0 mi North 9.2 mph - N/A   Clear
8:35 AM 21.6 °F 10.6 °F 18.1 °F 87% 30.48 in 10.0 mi North 10.4 mph - N/A   Clear
8:55 AM 22.8 °F 10.4 °F 18.9 °F 85% 30.49 in 10.0 mi North 13.8 mph - N/A   Clear
9:15 AM 24.1 °F 12.0 °F 19.8 °F 84% 30.50 in 10.0 mi North 13.8 mph 18.4 mph N/A   Clear
9:35 AM 24.8 °F 12.9 °F 19.6 °F 81% 30.51 in 10.0 mi North 13.8 mph 19.6 mph N/A   Scattered Clouds
9:55 AM 25.5 °F 13.3 °F 19.4 °F 78% 30.52 in 10.0 mi NNE 15.0 mph - N/A   Scattered Clouds
10:15 AM 26.6 °F 14.7 °F 19.2 °F 74% 30.53 in 10.0 mi NNE 15.0 mph - N/A   Clear
10:35 AM 28.0 °F 17.0 °F 18.9 °F 68% 30.53 in 10.0 mi NNE 13.8 mph 18.4 mph N/A   Clear
10:55 AM 27.9 °F 16.3 °F 18.3 °F 67% 30.54 in 10.0 mi NNE 15.0 mph - N/A   Clear
11:15 AM 29.1 °F 18.9 °F 18.3 °F 64% 30.54 in 10.0 mi NNE 12.7 mph - N/A   Clear
11:35 AM 30.2 °F 21.3 °F 17.4 °F 59% 30.53 in 10.0 mi NNE 10.4 mph 17.3 mph N/A   Clear
11:55 AM 31.1 °F 23.1 °F 17.6 °F 57% 30.53 in 10.0 mi NNE 9.2 mph 18.4 mph N/A   Clear
12:15 PM 31.8 °F 25.4 °F 16.9 °F 54% 30.53 in 10.0 mi NNE 6.9 mph - N/A   Clear
12:35 PM 32.0 °F 24.2 °F 16.9 °F 54% 30.52 in 10.0 mi NE 9.2 mph - N/A   Clear
12:55 PM 32.4 °F 26.0 °F 16.9 °F 53% 30.52 in 10.0 mi North 6.9 mph - N/A   Clear
1:15 PM 32.7 °F 28.3 °F 16.5 °F 51% 30.51 in 10.0 mi NNE 4.6 mph - N/A   Clear
1:35 PM 33.3 °F 30.2 °F 16.0 °F 49% 30.51 in 10.0 mi NE 3.5 mph - N/A   Clear
1:55 PM 34.0 °F 28.8 °F 15.6 °F 47% 30.50 in 10.0 mi NNE 5.8 mph - N/A   Clear
2:15 PM 34.3 °F 25.9 °F 15.8 °F 47% 30.48 in 10.0 mi NE 11.5 mph - N/A   Clear
2:35 PM 34.7 °F 29.6 °F 15.4 °F 45% 30.48 in 10.0 mi NNE 5.8 mph - N/A   Clear
2:55 PM 35.1 °F 31.0 °F 14.9 °F 44% 30.48 in 10.0 mi East 4.6 mph - N/A   Clear
3:15 PM 35.2 °F - 14.9 °F 43% 30.48 in 10.0 mi Calm Calm - N/A   Clear
3:35 PM 35.6 °F - 14.7 °F 42% 30.48 in 10.0 mi Calm Calm - N/A   Clear
3:55 PM 35.2 °F - 14.7 °F 43% 30.48 in 10.0 mi Calm Calm - N/A   Clear
4:15 PM 35.1 °F - 14.7 °F 43% 30.48 in 10.0 mi Calm Calm - N/A   Clear
4:35 PM 35.1 °F - 14.9 °F 44% 30.48 in 10.0 mi Calm Calm - N/A   Clear
4:55 PM 34.3 °F - 14.9 °F 45% 30.48 in 10.0 mi Calm Calm - N/A   Clear
5:15 PM 33.8 °F 30.8 °F 14.7 °F 46% 30.48 in 10.0 mi SE 3.5 mph - N/A   Clear
5:35 PM 30.0 °F 23.2 °F 12.2 °F 48% 30.48 in 10.0 mi SSE 6.9 mph - N/A   Clear
5:55 PM 25.2 °F 16.5 °F 10.8 °F 54% 30.48 in 10.0 mi SSE 8.1 mph - N/A   Clear
6:15 PM 23.4 °F 16.2 °F 9.7 °F 56% 30.49 in 10.0 mi SE 5.8 mph - N/A   Clear
6:35 PM 22.8 °F 14.5 °F 9.1 °F 56% 30.49 in 10.0 mi SSE 6.9 mph - N/A   Clear
6:55 PM 21.2 °F 13.6 °F 9.3 °F 60% 30.49 in 10.0 mi SSE 5.8 mph - N/A   Clear
7:15 PM 22.8 °F 16.7 °F 11.3 °F 61% 30.49 in 10.0 mi SE 4.6 mph - N/A   Clear
7:35 PM 21.2 °F 12.6 °F 10.9 °F 65% 30.50 in 10.0 mi SSE 6.9 mph - N/A   Clear
7:55 PM 18.5 °F 7.5 °F 8.6 °F 65% 30.50 in 10.0 mi SSE 9.2 mph - N/A   Clear
8:15 PM 18.0 °F 8.7 °F 9.1 °F 68% 30.51 in 10.0 mi South 6.9 mph - N/A   Clear
8:35 PM 17.1 °F 6.6 °F 8.6 °F 69% 30.50 in 10.0 mi South 8.1 mph - N/A   Clear
8:55 PM 18.9 °F 10.8 °F 10.8 °F 71% 30.51 in 10.0 mi South 5.8 mph - N/A   Clear
9:15 PM 17.8 °F 8.5 °F 9.9 °F 71% 30.49 in 10.0 mi South 6.9 mph - N/A   Clear
9:35 PM 17.1 °F 5.8 °F 9.7 °F 73% 30.49 in 10.0 mi South 9.2 mph - N/A   Clear
9:55 PM 17.2 °F 6.0 °F 10.4 °F 75% 30.49 in 10.0 mi South 9.2 mph - N/A   Clear
10:15 PM 17.8 °F 6.6 °F 10.8 °F 74% 30.48 in 10.0 mi South 9.2 mph - N/A   Clear
10:35 PM 19.2 °F 8.4 °F 11.3 °F 71% 30.48 in 10.0 mi South 9.2 mph - N/A   Clear
10:55 PM 18.9 °F 8.8 °F 11.1 °F 72% 30.49 in 10.0 mi South 8.1 mph - N/A   Clear
11:15 PM 18.3 °F 7.3 °F 11.1 °F 73% 30.48 in 10.0 mi South 9.2 mph - N/A   Clear
11:35 PM 18.1 °F 7.1 °F 11.3 °F 75% 30.48 in 10.0 mi South 9.2 mph - N/A   Clear
11:55 PM 18.5 °F 9.3 °F 11.8 °F 75% 30.48 in 10.0 mi SSW 6.9 mph - N/A   Clear